Orbital Elements at Epoch 2459200.5 (2020-Dec-17.0) TDB
Reference: JPL 4 (heliocentric ecliptic J2000)
Element | Value | Uncertainty (1-sigma) | Units |
e | .3704959400933935 | 0.00061067 | |
a | 1.567398160132982 | 0.0014967 | au |
q | .9866835052938577 | 1.5028e-05 | au |
i | 11.16000343412131 | 0.013276 | deg |
node | 188.0849907433956 | 0.00019026 | deg |
peri | 31.05703423633733 | 0.0015791 | deg |
M | 302.0667482056948 | 0.43025 | deg |
tp | 2459315.843421820114 (2021-Apr-11.34342182) | 1.0218 | TDB |
period | 716.7495448498692 1.96 | 1.0267 0.002811 | d yr |
n | .5022674971846768 | 0.00071944 | deg/d |
Q | 2.148112814972106 | 0.0020513 | au |
|
| | Orbit Determination Parameters
Additional Information
|